Saint Johnsbury, VT

1:17 AM EST on February 23, 2017 (GMT -0500)
St. Johnsbury

Weather History for K1V4 - November, 2014

Change the Weather History Date:

Wednesday, November 19, 2014

  Actual Average Record
Temperature  
Mean Temperature 24 °F 35 °F  
Max Temperature 31 °F 43 °F 66 °F (1941)
Min Temperature 17 °F 27 °F 1 °F (1936)
Degree Days  
Heating Degree Days 41 30  
Month to date heating degree days 546 507  
Since 1 July heating degree days 1281 1294  
Cooling Degree Days 0 0  
Month to date cooling degree days 0 0  
Year to date cooling degree days 252 433  
Moisture  
Dew Point 13 °F    
Average Humidity 65    
Maximum Humidity 84    
Minimum Humidity 46    
Precipitation  
Precipitation 0.03 in 0.11 in 1.51 in (1932)
Month to date precipitation 1.19 2.18  
Year to date precipitation 34.93 35.20  
Sea Level Pressure  
Sea Level Pressure 29.97 in    
Wind  
Wind Speed - (North)    
Max Wind Speed -    
Max Gust Speed -    
T = Trace of Precipitation, MM = Missing Value Source: NWS Daily Summary

Daily Weather History Graph

Daily Weather History Graph

Search for Another Location

Airport or City:

Trip Planner

Search our weather history database for the weather conditions in past years. The results will help you decide how hot, cold, wet, or windy it might be!

Date:

Astronomy

Nov. 19, 2014 Rise Set
Actual Time 6:49 AM EST 4:17 PM EST
Civil Twilight 6:17 AM EST 4:48 PM EST
Nautical Twilight 5:42 AM EST 5:24 PM EST
Astronomical Twilight 5:07 AM EST 5:58 PM EST
Moon 3:35 AM EST (11/19) 2:49 PM EST (11/19)
Length of Visible Light 10h 31m
Length of Day
9h 27m
Waning Crescent, 9% of the Moon is Illuminated
Nov 19
Waning Crescent
Nov 22
New
Nov 29
First Quarter
Dec 6
Full
Dec 14
Last Quarter

Hourly Weather History & Observations

Time (EST) Temp. Dew Point Humidity Pressure Visibility Wind Dir Wind Speed Gust Speed Precip Events Conditions
12:54 AM 21.9 °F 8.1 °F 55% 29.75 in - North - - N/A   Unknown
1:54 AM 23.0 °F 9.0 °F 55% 29.77 in - North - - N/A   Unknown
2:54 AM 21.9 °F 14.0 °F 72% 29.80 in - North - - N/A   Unknown
3:54 AM 21.0 °F 16.0 °F 81% 29.82 in - North - - N/A   Unknown
4:54 AM 21.0 °F 18.0 °F 88% 29.88 in - North - - 0.02 in   Unknown
5:54 AM 21.9 °F 18.0 °F 85% 29.92 in - North - - 0.01 in   Unknown
6:54 AM 21.0 °F 16.0 °F 81% 29.96 in - North - - N/A   Unknown
7:54 AM 19.9 °F 16.0 °F 85% 29.99 in - North - - N/A   Unknown
8:54 AM 24.1 °F 16.0 °F 71% 30.01 in - North - - N/A   Unknown
9:54 AM 26.1 °F 16.0 °F 66% 30.04 in - North - - N/A   Unknown
10:54 AM 30.0 °F 14.0 °F 51% 30.05 in - North - - N/A   Unknown
11:54 AM 30.0 °F 12.9 °F 49% 30.04 in - North - - N/A   Unknown
12:54 PM 28.9 °F 10.9 °F 47% 30.04 in - North - - N/A   Unknown
1:54 PM 28.9 °F 10.9 °F 47% 30.03 in - North - - N/A   Unknown
2:54 PM 28.9 °F 10.0 °F 45% 30.03 in - North - - N/A   Unknown
3:54 PM 28.0 °F 10.0 °F 47% 30.03 in - North - - N/A   Unknown
4:54 PM 27.0 °F 10.9 °F 51% 30.04 in - North - - N/A   Unknown
5:54 PM 24.1 °F 12.0 °F 60% 30.04 in - North - - N/A   Unknown
6:54 PM 21.0 °F 14.0 °F 74% 30.04 in - North - - N/A   Unknown
7:54 PM 18.0 °F 12.9 °F 81% 30.02 in - North - - N/A   Unknown
8:54 PM 18.0 °F 12.9 °F 81% 30.02 in - North - - N/A   Unknown
9:54 PM 18.0 °F 12.0 °F 78% 30.01 in - North - - N/A   Unknown
10:54 PM 19.0 °F 12.9 °F 77% 29.99 in - North - - N/A   Unknown
11:54 PM 21.0 °F 12.0 °F 68% 29.96 in - North - - N/A   Unknown